DLH6TU LIMC-EDDM

Flight info

Callsign DLH6TU
Flight time 0h 50m
Altitude 18000
Route OSKOR M985 TAGIP T876 GUNGO Y246 TISAX T102 IVKAL/N0379F240 T102 NINUR T101 BETOS BETOS1B
Aircraft A321/M-SDE2E3FGIJ1LORWXYZ/HB1

Departure

Time 2026-05-07 16:41
Airport Milan Malpensa International Airport (LIMC)

Arrival

Time 2026-05-07 17:32
Airport Munich Airport (EDDM)
Time Latitude Longitude Altitude Speed Heading
2026-05-07 16:08 45.62547 8.71604 741 ft 0 kts 169°
2026-05-07 16:26 45.62565 8.71598 741 ft 4 kts 169°
2026-05-07 16:26 45.62587 8.71592 740 ft 4 kts 166°
2026-05-07 16:26 45.62609 8.71577 740 ft 4 kts 124°
2026-05-07 16:26 45.62617 8.71543 741 ft 3 kts 93°
2026-05-07 16:27 45.62618 8.71531 741 ft 0 kts 92°
2026-05-07 16:31 45.62618 8.71532 741 ft 1 kts 92°
2026-05-07 16:31 45.62617 8.71552 741 ft 3 kts 93°
2026-05-07 16:32 45.62620 8.71601 740 ft 6 kts 83°
2026-05-07 16:32 45.62629 8.71668 741 ft 8 kts 78°
2026-05-07 16:32 45.62642 8.71759 740 ft 10 kts 78°
2026-05-07 16:32 45.62617 8.71838 741 ft 10 kts 155°
2026-05-07 16:33 45.62546 8.71861 740 ft 11 kts 167°
2026-05-07 16:33 45.62463 8.71884 741 ft 13 kts 169°
2026-05-07 16:33 45.62370 8.71909 740 ft 14 kts 169°
2026-05-07 16:33 45.62267 8.71938 740 ft 16 kts 169°
2026-05-07 16:34 45.62155 8.71968 741 ft 17 kts 169°
2026-05-07 16:34 45.62036 8.72001 741 ft 18 kts 168°
2026-05-07 16:34 45.61914 8.72034 741 ft 19 kts 169°
2026-05-07 16:34 45.61780 8.72072 741 ft 19 kts 168°
2026-05-07 16:35 45.61645 8.72109 741 ft 20 kts 168°
2026-05-07 16:35 45.61502 8.72149 740 ft 21 kts 169°
2026-05-07 16:35 45.61352 8.72191 742 ft 22 kts 169°
2026-05-07 16:35 45.61195 8.72234 742 ft 22 kts 169°
2026-05-07 16:36 45.61042 8.72276 742 ft 23 kts 169°
2026-05-07 16:36 45.60890 8.72318 740 ft 21 kts 169°
2026-05-07 16:36 45.60743 8.72358 741 ft 22 kts 169°
2026-05-07 16:36 45.60646 8.72436 742 ft 17 kts 112°
2026-05-07 16:37 45.60630 8.72602 742 ft 18 kts 96°
2026-05-07 16:37 45.60616 8.72783 742 ft 19 kts 95°
2026-05-07 16:37 45.60603 8.72975 742 ft 20 kts 96°
2026-05-07 16:37 45.60589 8.73178 742 ft 21 kts 86°
2026-05-07 16:38 45.60690 8.73302 742 ft 20 kts 23°
2026-05-07 16:38 45.60827 8.73381 741 ft 22 kts 22°
2026-05-07 16:38 45.60973 8.73386 742 ft 22 kts 349°
2026-05-07 16:38 45.61128 8.73343 742 ft 24 kts 349°
2026-05-07 16:39 45.61293 8.73297 742 ft 25 kts 349°
2026-05-07 16:39 45.61451 8.73253 742 ft 21 kts 349°
2026-05-07 16:39 45.61581 8.73218 742 ft 12 kts 352°
2026-05-07 16:39 45.61622 8.73301 741 ft 12 kts 75°
2026-05-07 16:40 45.61632 8.73423 740 ft 13 kts 103°
2026-05-07 16:40 45.61590 8.73542 741 ft 14 kts 109°
2026-05-07 16:40 45.61598 8.73690 739 ft 16 kts 64°
2026-05-07 16:40 45.61705 8.73711 739 ft 17 kts 350°
2026-05-07 16:41 45.61939 8.73648 739 ft 69 kts 349°
2026-05-07 16:41 45.62656 8.73453 742 ft 138 kts 349°
2026-05-07 16:41 45.63775 8.73138 877 ft 177 kts 348°
2026-05-07 16:41 45.64875 8.72791 1932 ft 153 kts 348°
2026-05-07 16:42 45.65904 8.72486 2666 ft 156 kts 348°
2026-05-07 16:42 45.67038 8.72160 3110 ft 178 kts 348°
2026-05-07 16:42 45.68339 8.71817 3429 ft 200 kts 354°
2026-05-07 16:42 45.69749 8.72231 3679 ft 222 kts 29°
2026-05-07 16:43 45.70893 8.73850 3890 ft 244 kts 58°
2026-05-07 16:43 45.71744 8.76047 4264 ft 262 kts 63°
2026-05-07 16:43 45.72586 8.78404 4996 ft 269 kts 64°
2026-05-07 16:43 45.73436 8.80814 5817 ft 273 kts 63°
2026-05-07 16:44 45.74295 8.83250 6600 ft 278 kts 63°
2026-05-07 16:44 45.75164 8.85737 7138 ft 280 kts 63°
2026-05-07 16:44 45.76028 8.88249 7959 ft 283 kts 64°
2026-05-07 16:44 45.76886 8.90791 8757 ft 286 kts 64°
2026-05-07 16:45 45.77749 8.93386 9562 ft 289 kts 64°
2026-05-07 16:45 45.78611 8.96012 10192 ft 299 kts 64°
2026-05-07 16:45 45.79531 8.98823 10407 ft 322 kts 64°
2026-05-07 16:45 45.80509 9.01807 10764 ft 337 kts 64°
2026-05-07 16:46 45.81258 9.05010 11351 ft 344 kts 80°
2026-05-07 16:46 45.81560 9.08444 12004 ft 349 kts 83°
2026-05-07 16:46 45.81844 9.11918 12660 ft 354 kts 83°
2026-05-07 16:46 45.82127 9.15447 12911 ft 357 kts 83°
2026-05-07 16:47 45.82406 9.18976 12969 ft 357 kts 83°
2026-05-07 16:47 45.82684 9.22518 12969 ft 357 kts 83°
2026-05-07 16:47 45.82963 9.26057 12969 ft 357 kts 83°
2026-05-07 16:47 45.83241 9.29596 12969 ft 357 kts 83°
2026-05-07 16:48 45.83518 9.33127 12972 ft 357 kts 83°
2026-05-07 16:48 45.83793 9.36622 12977 ft 358 kts 83°
2026-05-07 16:48 45.84077 9.40246 13566 ft 361 kts 83°
2026-05-07 16:48 45.84352 9.43785 14180 ft 365 kts 83°
2026-05-07 16:49 45.84632 9.47413 14760 ft 368 kts 83°
2026-05-07 16:49 45.84915 9.51079 15374 ft 370 kts 83°
2026-05-07 16:49 45.85200 9.54770 15981 ft 374 kts 83°
2026-05-07 16:49 45.85487 9.58490 16570 ft 378 kts 83°
2026-05-07 16:50 45.85776 9.62270 17156 ft 382 kts 84°
2026-05-07 16:50 45.86062 9.66072 17670 ft 385 kts 83°
2026-05-07 16:50 45.86348 9.69916 18230 ft 389 kts 83°
2026-05-07 16:50 45.86640 9.73794 18716 ft 392 kts 83°
2026-05-07 16:51 45.86932 9.77692 19225 ft 395 kts 83°
2026-05-07 16:51 45.87226 9.81625 19694 ft 398 kts 83°
2026-05-07 16:51 45.87520 9.85582 20195 ft 401 kts 84°
2026-05-07 16:51 45.87814 9.89581 20649 ft 404 kts 83°
2026-05-07 16:52 45.88107 9.93610 21126 ft 407 kts 84°
2026-05-07 16:52 45.88400 9.97657 21589 ft 410 kts 83°
2026-05-07 16:52 45.88700 10.01748 22044 ft 413 kts 83°
2026-05-07 16:52 45.89000 10.05869 22522 ft 416 kts 84°
2026-05-07 16:53 45.89296 10.10001 22984 ft 419 kts 84°
2026-05-07 16:53 45.89592 10.14184 23452 ft 421 kts 84°
2026-05-07 16:53 45.89889 10.18387 23829 ft 425 kts 84°
2026-05-07 16:53 45.90187 10.22609 24162 ft 429 kts 84°
2026-05-07 16:54 45.90486 10.26853 24505 ft 433 kts 84°
2026-05-07 16:54 45.90792 10.31210 24903 ft 435 kts 83°
2026-05-07 16:54 45.91094 10.35501 25254 ft 438 kts 83°
2026-05-07 16:54 45.91396 10.39869 25591 ft 442 kts 83°
2026-05-07 16:55 45.91699 10.44285 25915 ft 446 kts 84°
2026-05-07 16:55 45.92003 10.48732 26283 ft 450 kts 83°
2026-05-07 16:55 45.92306 10.53221 26607 ft 454 kts 84°
2026-05-07 16:55 45.92674 10.57736 26906 ft 456 kts 78°
2026-05-07 16:56 45.93531 10.62121 27222 ft 457 kts 66°
2026-05-07 16:56 45.94941 10.66226 27547 ft 457 kts 55°
2026-05-07 16:56 45.99134 10.73023 28015 ft 453 kts 33°
2026-05-07 16:57 46.01756 10.75465 28030 ft 446 kts 22°
2026-05-07 16:57 46.04500 10.77562 28034 ft 447 kts 22°
2026-05-07 16:57 46.09975 10.81745 28048 ft 443 kts 24°
2026-05-07 16:58 46.15411 10.85943 28055 ft 443 kts 24°
2026-05-07 16:58 46.20835 10.90161 28050 ft 443 kts 24°
2026-05-07 16:59 46.26260 10.94380 28051 ft 443 kts 24°
2026-05-07 16:59 46.31684 10.98596 28053 ft 443 kts 24°
2026-05-07 17:00 46.37113 11.02809 28055 ft 442 kts 24°
2026-05-07 17:00 46.42789 11.05895 28043 ft 433 kts
2026-05-07 17:01 46.48684 11.06488 28037 ft 425 kts 355°
2026-05-07 17:01 46.54562 11.06480 28032 ft 426 kts 356°
2026-05-07 17:02 46.60384 11.06507 28028 ft 406 kts 356°
2026-05-07 17:02 46.65960 11.06265 28033 ft 397 kts 348°
2026-05-07 17:03 46.71429 11.05225 28025 ft 396 kts 349°
2026-05-07 17:03 46.76889 11.04212 28031 ft 396 kts 349°
2026-05-07 17:04 46.82368 11.03194 28029 ft 397 kts 349°
2026-05-07 17:04 46.87853 11.02153 28039 ft 397 kts 349°
2026-05-07 17:05 46.93332 11.01130 28031 ft 398 kts 352°
2026-05-07 17:05 46.98894 11.01526 28028 ft 402 kts
2026-05-07 17:06 47.04466 11.02381 28031 ft 402 kts
2026-05-07 17:06 47.10033 11.03230 28033 ft 402 kts
2026-05-07 17:07 47.15590 11.04078 28030 ft 401 kts
2026-05-07 17:07 47.21145 11.04920 28032 ft 401 kts
2026-05-07 17:08 47.23926 11.05343 27608 ft 402 kts
2026-05-07 17:08 47.26686 11.05762 27168 ft 396 kts
2026-05-07 17:08 47.29402 11.06179 26770 ft 389 kts
2026-05-07 17:08 47.32072 11.06592 26379 ft 383 kts
2026-05-07 17:09 47.34708 11.06995 25991 ft 378 kts
2026-05-07 17:09 47.37305 11.07391 25593 ft 373 kts
2026-05-07 17:09 47.39872 11.07782 25191 ft 368 kts
2026-05-07 17:09 47.42400 11.08170 24796 ft 364 kts
2026-05-07 17:10 47.44905 11.08558 24389 ft 360 kts
2026-05-07 17:10 47.46550 11.08813 24126 ft 357 kts
2026-05-07 17:10 47.49005 11.09193 23725 ft 353 kts
2026-05-07 17:10 47.52225 11.09688 23140 ft 348 kts
2026-05-07 17:11 47.53842 11.09938 22872 ft 345 kts
2026-05-07 17:11 47.56189 11.10600 22459 ft 343 kts 14°
2026-05-07 17:11 47.58400 11.11912 22052 ft 342 kts 25°
2026-05-07 17:11 47.61110 11.14241 21530 ft 337 kts 28°
2026-05-07 17:12 47.62473 11.15424 21253 ft 335 kts 27°
2026-05-07 17:12 47.64473 11.17158 20858 ft 331 kts 27°
2026-05-07 17:12 47.66453 11.18875 20460 ft 328 kts 27°
2026-05-07 17:12 47.68413 11.20576 20077 ft 325 kts 27°
2026-05-07 17:13 47.70362 11.22269 19675 ft 323 kts 27°
2026-05-07 17:13 47.72296 11.23951 19285 ft 324 kts 27°
2026-05-07 17:13 47.74370 11.25515 18882 ft 339 kts 18°
2026-05-07 17:13 47.76594 11.26742 18478 ft 342 kts 17°
2026-05-07 17:14 47.78821 11.27970 18035 ft 341 kts 18°
2026-05-07 17:14 47.81005 11.29183 17629 ft 340 kts 18°
2026-05-07 17:14 47.83252 11.30437 17203 ft 347 kts 18°
2026-05-07 17:14 47.85561 11.31720 16790 ft 358 kts 18°
2026-05-07 17:15 47.87903 11.32976 16358 ft 358 kts 13°
2026-05-07 17:15 47.90332 11.33612 15916 ft 352 kts
2026-05-07 17:15 47.92741 11.33819 15480 ft 351 kts
2026-05-07 17:15 47.95176 11.34021 15043 ft 350 kts 360°
2026-05-07 17:16 47.97601 11.34221 14606 ft 348 kts 360°
2026-05-07 17:16 48.00013 11.34421 14170 ft 347 kts 360°
2026-05-07 17:16 48.02416 11.34635 13725 ft 346 kts
2026-05-07 17:16 48.04746 11.35510 13264 ft 349 kts 22°
2026-05-07 17:17 48.06731 11.37581 13011 ft 352 kts 44°
2026-05-07 17:17 48.08121 11.40597 13027 ft 355 kts 65°
2026-05-07 17:17 48.09053 11.44024 13006 ft 355 kts 63°
2026-05-07 17:17 48.10331 11.47150 12499 ft 351 kts 54°
2026-05-07 17:18 48.11719 11.50141 11950 ft 349 kts 53°
2026-05-07 17:18 48.13108 11.53106 11431 ft 346 kts 53°
2026-05-07 17:18 48.14475 11.56028 11078 ft 338 kts 53°
2026-05-07 17:18 48.15792 11.58850 11021 ft 321 kts 53°
2026-05-07 17:19 48.17043 11.61544 11042 ft 313 kts 53°
2026-05-07 17:19 48.18284 11.64217 11048 ft 312 kts 53°
2026-05-07 17:19 48.19522 11.66882 11050 ft 311 kts 53°
2026-05-07 17:19 48.20757 11.69541 11051 ft 311 kts 53°
2026-05-07 17:20 48.21993 11.72205 11053 ft 311 kts 53°
2026-05-07 17:20 48.23192 11.74787 11054 ft 311 kts 53°
2026-05-07 17:20 48.24424 11.77568 11054 ft 312 kts 62°
2026-05-07 17:20 48.25055 11.80678 11008 ft 314 kts 81°
2026-05-07 17:21 48.25322 11.83914 10753 ft 312 kts 84°
2026-05-07 17:21 48.25545 11.87146 10508 ft 310 kts 84°
2026-05-07 17:21 48.25762 11.90356 10264 ft 309 kts 84°
2026-05-07 17:21 48.25977 11.93561 10018 ft 308 kts 84°
2026-05-07 17:22 48.26189 11.96741 9503 ft 303 kts 84°
2026-05-07 17:22 48.26393 11.99859 8972 ft 295 kts 84°
2026-05-07 17:22 48.26585 12.02854 8451 ft 283 kts 84°
2026-05-07 17:22 48.26763 12.05727 7972 ft 269 kts 84°
2026-05-07 17:23 48.26928 12.08467 7464 ft 261 kts 85°
2026-05-07 17:23 48.27092 12.11182 6977 ft 262 kts 84°
2026-05-07 17:23 48.27252 12.13912 6476 ft 263 kts 84°
2026-05-07 17:23 48.27413 12.16658 5968 ft 264 kts 84°
2026-05-07 17:24 48.27566 12.19396 5530 ft 261 kts 84°
2026-05-07 17:24 48.28002 12.21960 5221 ft 250 kts 59°
2026-05-07 17:24 48.29166 12.23766 5033 ft 238 kts 26°
2026-05-07 17:24 48.30734 12.24375 4912 ft 234 kts 359°
2026-05-07 17:25 48.32355 12.24349 4785 ft 232 kts 355°
2026-05-07 17:25 48.33960 12.24246 4655 ft 231 kts 353°
2026-05-07 17:25 48.35458 12.23544 4523 ft 225 kts 327°
2026-05-07 17:25 48.36599 12.21976 4391 ft 222 kts 304°
2026-05-07 17:26 48.37224 12.19873 4267 ft 222 kts 282°
2026-05-07 17:26 48.37252 12.17556 4152 ft 224 kts 265°
2026-05-07 17:26 48.37078 12.15231 4048 ft 224 kts 264°
2026-05-07 17:26 48.36909 12.12946 3987 ft 212 kts 264°
2026-05-07 17:27 48.36749 12.10774 4016 ft 207 kts 265°
2026-05-07 17:27 48.36592 12.08643 4002 ft 204 kts 265°
2026-05-07 17:27 48.36436 12.06528 4003 ft 204 kts 265°
2026-05-07 17:27 48.36280 12.04427 4000 ft 198 kts 265°
2026-05-07 17:28 48.36132 12.02443 4011 ft 187 kts 265°
2026-05-07 17:28 48.35992 12.00547 4003 ft 179 kts 264°
2026-05-07 17:28 48.35856 11.98723 3880 ft 174 kts 264°
2026-05-07 17:28 48.35724 11.96955 3687 ft 171 kts 265°
2026-05-07 17:29 48.35589 11.95162 3476 ft 173 kts 265°
2026-05-07 17:29 48.35457 11.93394 3247 ft 167 kts 264°
2026-05-07 17:29 48.35330 11.91711 3031 ft 159 kts 265°
2026-05-07 17:29 48.35207 11.90074 2817 ft 157 kts 264°
2026-05-07 17:30 48.35084 11.88453 2601 ft 155 kts 265°
2026-05-07 17:30 48.34963 11.86846 2379 ft 152 kts 266°
2026-05-07 17:30 48.34845 11.85297 2171 ft 146 kts 266°
2026-05-07 17:30 48.34723 11.83795 1978 ft 144 kts 268°
2026-05-07 17:31 48.34612 11.82297 1769 ft 144 kts 265°
2026-05-07 17:31 48.34504 11.80793 1567 ft 144 kts 266°
2026-05-07 17:31 48.34394 11.79338 1477 ft 129 kts 265°
2026-05-07 17:31 48.34311 11.78223 1485 ft 59 kts 262°
2026-05-07 17:32 48.34339 11.77935 1473 ft 16 kts 288°
2026-05-07 17:32 48.34378 11.77771 1481 ft 15 kts 294°
2026-05-07 17:32 48.34421 11.77622 1475 ft 12 kts 294°
2026-05-07 17:32 48.34455 11.77508 1477 ft 11 kts 294°
2026-05-07 17:33 48.34478 11.77453 1482 ft 6 kts 323°
2026-05-07 17:33 48.34535 11.77436 1481 ft 10 kts 353°
2026-05-07 17:33 48.34614 11.77435 1482 ft 13 kts 28°
2026-05-07 17:33 48.34638 11.77563 1477 ft 14 kts 84°
2026-05-07 17:34 48.34650 11.77720 1476 ft 16 kts 84°
2026-05-07 17:34 48.34664 11.77904 1485 ft 19 kts 83°
2026-05-07 17:34 48.34679 11.78095 1485 ft 16 kts 83°
2026-05-07 17:34 48.34694 11.78272 1480 ft 18 kts 83°
2026-05-07 17:35 48.34709 11.78470 1485 ft 20 kts 84°
2026-05-07 17:35 48.34725 11.78684 1472 ft 22 kts 83°
2026-05-07 17:35 48.34743 11.78910 1485 ft 21 kts 83°
2026-05-07 17:35 48.34759 11.79123 1485 ft 17 kts 84°
2026-05-07 17:36 48.34772 11.79299 1477 ft 16 kts 83°
2026-05-07 17:36 48.34784 11.79456 1473 ft 14 kts 83°
2026-05-07 17:36 48.34832 11.79558 1478 ft 13 kts 10°
2026-05-07 17:36 48.34900 11.79549 1486 ft 6 kts 353°
2026-05-07 17:37 48.34909 11.79548 1486 ft 0 kts 353°
2026-05-07 17:38 48.34911 11.79548 1486 ft 1 kts 353°
2026-05-07 17:38 48.34926 11.79545 1483 ft 3 kts 353°
2026-05-07 17:38 48.34958 11.79539 1485 ft 6 kts 353°
2026-05-07 17:38 48.35006 11.79531 1482 ft 8 kts 353°
2026-05-07 17:39 48.35068 11.79531 1483 ft 10 kts 23°
2026-05-07 17:39 48.35096 11.79626 1485 ft 11 kts 81°
2026-05-07 17:39 48.35106 11.79754 1485 ft 13 kts 83°
2026-05-07 17:39 48.35116 11.79883 1478 ft 13 kts 84°
2026-05-07 17:40 48.35126 11.80015 1480 ft 12 kts 84°
2026-05-07 17:40 48.35141 11.80140 1482 ft 12 kts 58°
2026-05-07 17:40 48.35222 11.80149 1482 ft 13 kts 353°
2026-05-07 17:40 48.35318 11.80133 1476 ft 15 kts 353°
2026-05-07 17:41 48.35423 11.80107 1478 ft 16 kts 352°
2026-05-07 17:41 48.35519 11.80090 1476 ft 13 kts 354°
2026-05-07 17:41 48.35603 11.80076 1479 ft 13 kts 353°
2026-05-07 17:41 48.35687 11.80069 1475 ft 11 kts 359°
2026-05-07 17:42 48.35712 11.79996 1485 ft 5 kts 264°
2026-05-07 17:42 48.35711 11.79982 1481 ft 2 kts 265°
2026-05-07 17:42 48.35710 11.79963 1485 ft 1 kts 264°
2026-05-07 17:42 48.35709 11.79957 1485 ft 0 kts 264°